Погода в Дагулине

Китай     22°20′40″N   114°15′11″E
темп.,
°C
ветер,
м/с
пор.,
м/с
влажн.,
%
обл.,
%
осадки,
мм/ч
давл.,
гПа
погр.,
м
5 декабря, вс
вс523:00+19всв886098 0.0 10231083
02:00+18всв996499 0.0 10221101
05:00+18всв91069100 0.0 1022944
08:00+18всв896019 0.0 1024809
11:00+18всв675282 0.0 1024805
14:00+19в44485 0.0 1020701
17:00+19в334533 0.0 1020538
20:00+19св22445 0.0 1021368
6 декабря, пн
пн623:00+19св45518 0.0 1021621
02:00+19св565847 0.0 1020795
05:00+17св455934 0.0 1020477
08:00+17св355158 0.0 1022364
11:00+19св234071 0.0 1022601
14:00+20в233765 0.0 1019698
17:00+21в23395 0.0 1019445
20:00+20в44535 0.0 1021448
7 декабря, вт
вт723:00+20всв67680 0.0 1021919
02:00+19всв78741 0.0 1021868
05:00+18св57775 0.1 1021663
08:00+18св34630 0.1 1023322
11:00+19всв44470 0.0 1023625
14:00+19в67520 0.0 1020649
17:00+20в67600 0.0 1021677
20:00+19в89718 0.0 1022943
8 декабря, ср
ср823:00+19в1011709 0.0 10221027
02:00+19всв1112719 0.0 10221061
05:00+18всв1112680 0.0 1022961
08:00+18всв910660 0.0 1024836
11:00+18всв99620 0.0 1025870
14:00+19всв77580 0.0 1022833
17:00+20всв66570 0.0 1021641
20:00+20в78640 0.0 1023884
9 декабря, чт
чт923:00+20в89675 0.0 10231030
02:00+19всв997217 0.0 10231052
05:00+18всв910750 0.0 1022876
08:00+18всв78683 0.0 1024706
11:00+20св34560 0.0 1024687
14:00+20в33540 0.0 1021630
17:00+20в44530 0.0 1020520
20:00+20всв56623 0.0 1022607